Voltar ao catálogo

STARLINK-32161

AtivoComunicaçõesVLEO
NORAD 60593·PAYLOAD·🇺🇸 United States

Lançado Aug 20, 2024 de Cape Canaveral Space Force Station

Loading…

Próximas Passagens (próximas 24 horas)

TLE

AtualizadoSource: CelesTrak SupGP

Época: Sep 14, 2026, 21:08 UTC

1 60593C 24150L   26257.88104167 -.00066152  00000+0 -19544-2 0  2575
2 60593  53.1569 144.0510 0001285  91.2241  18.5106 15.34424196    15

Acompanhe STARLINK-32161 em tempo real com AllMySat

Download on the App Store